Вернуться в каталог

USA 149 DEB

LostMEO
NORAD 28156·DEBRIS·🇺🇸 United States

Запущен May 8, 2000 с Cape Canaveral Space Force Station

Loading…

Ближайшие Пролёты (ближайшие 24 часа)

TLE

УстаревшееSource: Space-Track

Эпоха: Apr 7, 2026, 10:20 UTC

1 28156U 00024E   26097.43100446 -.00000008  00000-0  00000-0 0  9993
2 28156  13.6658  12.0000 0166245 347.0654  12.4831  0.99754675 23959

Отслеживайте USA 149 DEB в реальном времени с AllMySat

Download on the App Store